Greensboro, NC

8:27 PM EDT on March 25, 2017 (GMT -0400)
Piedmont Triad International

Weather History for KGSO - April, 2013

Change the Weather History Date:

Monday, April 1, 2013

  Actual Average Record
Temperature  
Mean Temperature 58 °F 55 °F  
Max Temperature 71 °F 66 °F 90 °F (1910)
Min Temperature 45 °F 43 °F 20 °F (1923)
Degree Days  
Heating Degree Days 7 11  
Month to date heating degree days 7 11  
Since 1 July heating degree days 3352 3336  
Cooling Degree Days 0 0  
Month to date cooling degree days 0 0  
Year to date cooling degree days 0 5  
Growing Degree Days 8 (Base 50)    
Moisture  
Dew Point 42 °F    
Average Humidity 64    
Maximum Humidity 100    
Minimum Humidity 28    
Precipitation  
Precipitation T in 0.13 in 1.31 in (1927)
Month to date precipitation T 0.13  
Year to date precipitation 11.52 9.88  
Snow  
Snow 0.00 in 0.00 in T in (1993)
Month to date snowfall 0.0 0.0  
Since 1 July snowfall 3.6 7.5  
Snow Depth 0.00 in    
Sea Level Pressure  
Sea Level Pressure 29.86 in    
Wind  
Wind Speed 10 mph (WNW)    
Max Wind Speed 25 mph    
Max Gust Speed 32 mph    
Visibility 9 miles    
Events Fog , Rain    
T = Trace of Precipitation, MM = Missing Value Source: NWS Daily Summary

Daily Weather History Graph

Daily Weather History Graph

Search for Another Location

Airport or City:

Trip Planner

Search our weather history database for the weather conditions in past years. The results will help you decide how hot, cold, wet, or windy it might be!

Date:

Astronomy

Apr. 01, 2013 Rise Set
Actual Time 7:05 AM EDT 7:41 PM EDT
Civil Twilight 6:39 AM EDT 8:07 PM EDT
Nautical Twilight 6:09 AM EDT 8:38 PM EDT
Astronomical Twilight 5:38 AM EDT 9:09 PM EDT
Moon 12:40 AM EDT (4/1) 10:58 AM EDT (4/1)
Length of Visible Light 13h 27m
Length of Day
12h 36m
Waning Gibbous, 67% of the Moon is Illuminated
Apr 1
Waning Gibbous
Apr 3
Last Quarter
Apr 10
New
Apr 18
First Quarter
Apr 25
Full

Hourly Weather History & Observations

Time (EDT) Temp. Dew Point Humidity Pressure Visibility Wind Dir Wind Speed Gust Speed Precip Events Conditions
12:54 AM 53.1 °F 52.0 °F 96% 29.84 in 9.0 mi West 3.5 mph - N/A   Mostly Cloudy
1:54 AM 54.0 °F 52.0 °F 93% 29.83 in 10.0 mi West 4.6 mph - N/A   Overcast
2:54 AM 53.1 °F 52.0 °F 96% 29.82 in 9.0 mi WSW 3.5 mph - 0.00 in Rain Light Rain
3:54 AM 52.0 °F 51.1 °F 97% 29.82 in 5.0 mi SW 3.5 mph - 0.00 in Rain Light Rain
4:27 AM 51.8 °F 51.8 °F 100% 29.83 in 2.5 mi SW 3.5 mph - 0.00 in Fog Shallow Fog
4:54 AM 51.1 °F 51.1 °F 100% 29.83 in 3.0 mi Calm Calm - 0.00 in Fog Shallow Fog
5:54 AM 52.0 °F 51.1 °F 97% 29.83 in 9.0 mi NW 3.5 mph - N/A   Mostly Cloudy
6:54 AM 51.1 °F 48.0 °F 89% 29.86 in 10.0 mi NNW 4.6 mph - N/A   Partly Cloudy
7:54 AM 48.0 °F 45.0 °F 89% 29.88 in 10.0 mi WNW 4.6 mph - N/A   Partly Cloudy
8:54 AM 54.0 °F 46.0 °F 75% 29.88 in 10.0 mi NW 9.2 mph - N/A   Clear
9:54 AM 57.9 °F 41.0 °F 53% 29.87 in 10.0 mi WNW 8.1 mph - N/A   Clear
10:54 AM 62.1 °F 39.9 °F 44% 29.88 in 10.0 mi West 11.5 mph - N/A   Clear
11:54 AM 64.0 °F 37.9 °F 38% 29.87 in 10.0 mi West 12.7 mph - N/A   Clear
12:54 PM 66.9 °F 37.0 °F 33% 29.86 in 10.0 mi West 11.5 mph 20.7 mph N/A   Partly Cloudy
1:54 PM 68.0 °F 37.0 °F 32% 29.84 in 10.0 mi West 19.6 mph 24.2 mph N/A   Scattered Clouds
2:54 PM 69.1 °F 36.0 °F 30% 29.83 in 10.0 mi WNW 19.6 mph 26.5 mph N/A   Mostly Cloudy
3:54 PM 69.1 °F 35.1 °F 29% 29.83 in 10.0 mi West 19.6 mph 31.1 mph N/A   Mostly Cloudy
4:54 PM 64.9 °F 36.0 °F 34% 29.84 in 10.0 mi WNW 20.7 mph 32.2 mph N/A   Mostly Cloudy
5:54 PM 64.0 °F 36.0 °F 35% 29.85 in 10.0 mi WNW 16.1 mph 25.3 mph N/A   Mostly Cloudy
6:54 PM 62.1 °F 36.0 °F 38% 29.85 in 10.0 mi WNW 18.4 mph 26.5 mph N/A   Scattered Clouds
7:54 PM 60.1 °F 36.0 °F 41% 29.87 in 10.0 mi West 10.4 mph - N/A   Scattered Clouds
8:54 PM 57.9 °F 36.0 °F 44% 29.89 in 10.0 mi NW 5.8 mph - N/A   Partly Cloudy
9:54 PM 55.0 °F 35.1 °F 47% 29.91 in 10.0 mi NW 9.2 mph - N/A   Clear
10:54 PM 54.0 °F 34.0 °F 47% 29.94 in 10.0 mi NNW 5.8 mph - N/A   Partly Cloudy
11:54 PM 48.0 °F 33.1 °F 56% 29.97 in 10.0 mi North 9.2 mph - N/A   Partly Cloudy